Location: Comiziano
(40.9500°N, 14.5500°E)
Time: 18:26:27
(UTC+00:00)

Daily predictions for brighter satellites

Satellite Brightness Start Highest point End
(mag) Time Altitude Azimuth Time Altitude Azimuth Time Altitude Azimuth
ERBS 4.4 17:21:30 10° W 17:24:14 23° NW 17:26:57 10° NNE
Cosmos 1666 Rocket 3.5 17:20:45 10° S 17:25:04 81° E 17:29:24 10° N
CZ-2C R/B 3.5 17:21:02 10° S 17:26:48 79° WSW 17:32:24 10° NNW
Cosmos 1689 Rocket 2.8 17:24:13 10° NE 17:26:48 29° E 17:29:23 10° SSE
BREEZE-M DEB (TANK) 3.0 17:19:48 10° SW 17:27:42 55° SSE 17:30:39 10° ENE
Cosmos 2322 Rocket 2.2 17:23:57 10° SSW 17:29:30 69° ESE 17:35:06 10° NNE
Cosmos 1862 Rocket 3.9 17:25:49 10° N 17:30:10 47° ENE 17:34:28 10° SSE
Sich 1 4.2 17:28:25 10° SSW 17:32:39 48° W 17:36:57 10° N
Aureole 2 Rocket 3.2 17:32:23 10° NNE 17:34:13 18° ENE 17:35:38 12° ESE
Meteor 1-25 Rocket 4.3 17:30:41 10° S 17:36:27 89° E 17:42:11 10° N
Nadezhda 3 Rocket 4.2 17:31:19 10° N 17:37:34 54° E 17:43:46 10° SSE
Lacrosse 4 Rocket 3.4 17:36:10 10° ESE 17:37:35 11° ESE 17:38:01 11° E
COSMOS 2428 4.2 17:37:26 10° SE 17:40:06 14° E 17:42:29 11° ENE
Cosmos 2074 Rocket 4.2 17:34:13 10° S 17:40:29 81° W 17:46:47 10° N
Cosmos 2154 Rocket 4.0 17:34:35 10° S 17:40:43 66° E 17:46:52 10° NNE
CZ-3 Stage 3 4.2 17:35:44 10° WSW 17:41:10 21° SSW 17:43:32 10° SE
YAOGAN 1 2.5 17:37:38 10° SSE 17:41:56 70° ENE 17:46:15 10° N
Helios 1A Rocket 3.4 17:38:24 10° SE 17:42:11 39° ENE 17:45:57 10° N
Abrixas rocket 3.9 17:42:15 10° NW 17:43:59 17° N 17:45:44 10° NE
Meteor 1-14 Rocket 4.3 17:38:53 10° SSE 17:44:14 51° E 17:49:36 10° NNE
Cosmos 1610 Rocket 4.4 17:38:18 10° S 17:44:25 70° E 17:50:40 10° NNE
Cosmos 2219 Rocket 3.4 17:43:24 10° SE 17:47:12 19° E 17:51:01 10° ENE
APEX 3.6 17:45:33 10° NW 17:48:12 44° WSW 17:50:48 10° S
GP-B 3.7 17:45:24 10° SE 17:49:24 35° E 17:53:26 10° NNE
COSMO-SKYMED 1 4.3 17:47:08 10° N 17:51:06 36° WNW 17:55:04 10° SW
Cosmos 1992 Rocket 4.0 17:48:07 10° SSW 17:53:21 87° ESE 17:58:37 10° NNE
SL-16 R/B 2.8 17:48:31 10° SW 17:54:06 59° WNW 17:59:44 10° NNE
ARGOS 3.1 17:49:34 10° SSE 17:54:57 70° ENE 18:00:22 10° N
Cosmos 2263 Rocket 3.6 17:51:51 10° NW 17:57:02 41° WSW 18:02:13 10° S
Meteor 1-18 Rocket 4.3 17:51:50 10° N 17:57:48 78° E 18:03:40 10° SSE
Cosmos 968 Rocket 3.7 17:52:43 10° NNW 17:58:00 77° WSW 18:03:15 10° SSE
USA 234 3.4 17:53:42 10° NE 18:00:08 57° SE 18:06:32 10° SSW
Cosmos 1633 Rocket 4.2 17:56:54 10° SSW 18:01:10 48° W 18:05:28 10° N
Cosmos 1486 Rocket 4.1 17:56:27 10° NNW 18:01:46 81° WSW 18:07:04 10° SSE
Cosmos 1515 3.8 17:58:03 10° N 18:01:54 76° W 18:05:41 10° S
Okean 1 3.4 17:57:57 10° N 18:02:00 81° W 18:06:01 10° S
SeaSat 1 2.4 17:58:52 10° NNE 18:03:50 78° ESE 18:08:45 10° SSW
Okean 1-7 3.6 18:01:32 10° N 18:05:34 35° ENE 18:08:47 14° SE
H-2A R/B 2.7 18:00:56 10° S 18:06:20 64° W 18:11:45 10° NNW
CZ-4 R/B 2.4 18:02:44 10° S 18:06:26 47° W 18:10:13 10° NNW
Cosmos 2322 4.2 18:01:30 10° S 18:06:42 37° ESE 18:11:54 10° NE
CZ-2C R/B 2.6 18:04:03 10° NNE 18:09:32 75° ESE 18:14:51 10° S
SAR-Lupe-4 4.1 18:08:23 10° N 18:11:56 61° WNW 18:15:27 10° SSW
SL-8 Rocket 4.2 18:06:49 10° SSE 18:12:43 46° E 18:18:36 10° NNE
Cosmos 2237 4.4 18:07:37 10° SSW 18:13:21 79° WNW 18:19:07 10° NNE
Cosmos 962 Rocket 4.4 18:08:34 10° S 18:14:43 72° E 18:20:59 10° NNE
DMSP B5D2-2 4.1 18:10:48 10° NNE 18:15:55 55° E 18:21:00 10° S
SL-4 R/B 3.5 18:15:24 10° NNW 18:17:52 18° NNE 18:18:38 17° NNE
Cosmos 1869 Rocket 4.0 18:13:56 10° SSE 18:17:54 36° E 18:21:54 10° NNE
ATLAS CENTAUR R/B 1.8 18:19:55 10° SW 18:23:27 52° NW 18:26:57 10° NNE
FALCON 9 DEB 3.9 18:22:54 10° NW 18:26:06 36° NNE 18:26:13 36° NE
Okean-O 4.0 18:22:06 10° SSW 18:26:15 40° W 18:30:26 10° NNW
CSL-04 Rocket 3.8 18:21:52 10° S 18:27:25 78° WSW 18:32:58 10° NNW
Cosmos 2366 rocket 4.1 18:21:40 10° SSE 18:27:41 50° E 18:33:46 10° NNE
Cosmos 1354 Rocket 3.9 18:23:12 10° NNW 18:28:29 85° ENE 18:33:27 11° SSE
Cosmos 1339 Rocket 4.5 18:22:23 10° N 18:28:31 58° E 18:34:41 10° SSE
CSL-04 Debris 4.5 18:23:24 10° S 18:28:48 70° WSW 18:34:15 10° NNW
ERS-2 3.9 18:25:48 10° N 18:29:07 34° WNW 18:32:26 10° SW
Cosmos 44 Rocket 4.1 18:24:51 10° NW 18:29:58 56° WSW 18:35:00 10° SSE
Cosmos 1844 Rocket 2.5 18:26:42 10° NNW 18:32:18 78° ENE 18:36:09 21° SSE
Cosmos 1666 2.4 18:28:37 10° S 18:32:19 78° E 18:36:03 10° N
Cosmos 2084 Rocket 3.7 18:28:02 10° NW 18:32:24 72° WSW 18:34:58 25° SSE
Cosmos 2341 Rocket 4.0 18:29:46 10° S 18:36:07 88° W 18:42:25 10° N
Meteor 1-5 Rocket 4.1 18:31:13 10° S 18:36:33 86° W 18:42:04 10° N
Cosmos 1777 Rocket 4.3 18:32:08 10° N 18:37:09 45° ENE 18:37:59 42° E
Cosmos 2333 4.1 18:31:36 10° SSW 18:37:13 75° ESE 18:42:55 10° NNE
Cosmos 1503 Rocket 4.3 18:33:31 10° NNW 18:38:40 67° WSW 18:43:45 10° S
Ariane Rocket 3.1 18:42:04 45° ESE 18:42:52 50° ENE 18:47:48 10° N
Cosmos 2360 Rocket 2.9 18:37:59 10° SW 18:43:30 53° WNW 18:49:03 10° NNE
Cosmos 1844 3.6 18:38:20 10° NNW 18:44:08 80° ENE 18:46:58 31° SSE
Okean 3 4.3 18:40:03 10° N 18:42:57 35° NE 18:42:57 35° NE
Cosmos 2278 Rocket 3.7 18:45:11 10° N 18:48:36 21° NE 18:48:36 21° NE
DELTA 2 R/B (1) 4.1 18:45:10 10° SW 18:50:17 39° SSE 18:50:27 39° SSE
Cosmos 1727 Rocket 4.1 18:46:33 10° N 18:52:30 47° ENE 18:52:56 46° E
Cosmos 2333 Rocket 2.1 18:47:49 10° SSW 18:53:29 81° ESE 18:59:14 10° NNE
Cosmos 2218 Rocket 3.9 18:48:16 10° S 18:54:39 84° E 19:01:06 10° N
Meteor 2-4 Rocket 4.5 18:50:06 10° NNW 18:55:49 56° W 19:01:35 10° S
Cosmos 1703 Rocket 4.1 18:51:37 10° NNW 18:55:56 57° W 18:59:28 15° S
Resurs 01 Rocket 3.8 19:12:41 16° N 19:12:41 16° N 19:13:42 10° N
Lacrosse 4 Rocket 2.3 19:11:16 10° SW 19:14:29 47° SW 19:14:29 47° SW
SME Rocket 4.4 19:11:50 10° N 19:19:34 66° WNW 19:24:37 10° SSW
SJ-6B 4.0 19:22:30 42° W 19:22:30 42° W 19:26:01 10° NNW
COSMOS 2428 2.7 19:17:53 10° SSW 19:23:35 80° WNW 19:24:51 55° N
MOS 1 4.5 19:25:33 54° SSW 19:26:44 68° WSW 19:32:25 10° NNW
ASTEX 1 4.0 19:24:11 10° N 19:28:56 53° W 19:30:11 41° SW
Meteor 1-11 Rocket 4.4 19:24:45 10° SSW 19:30:21 53° WNW 19:35:51 10° N
Cosmos 2219 Rocket 2.7 19:25:08 10° SW 19:30:37 58° WNW 19:36:10 10° NNE
SJ 16-02 3.7 19:38:36 10° NNW 19:39:35 16° NNW 19:39:35 16° NNW
USA 234 4.0 19:39:54 28° NNE 19:43:02 47° NNW 19:49:13 10° WSW
Cosmos 2278 Rocket 4.3 20:28:26 10° NNW 20:30:28 22° NW 20:30:28 22° NW
